Home   Weather   Nukualofa   Past weeks
Flag for Tonga

Past Weather in Nukualofa, Tonga — Yesterday and Last 2 Weeks

Now
81 °F

Passing clouds.


Feels Like: 86 °F
Forecast: 83 / 72 °F
Wind: 8 mph from South

Location: Fua'Amotu

Current Time: Mar 19, 2019 at 1:06:27 pm

Latest Report: Mar 19, 2019 at 10:00 am


Visibility: N/A

Pressure: 29.86 "Hg

Humidity: 84%

Dew Point: 75 °F

Location of NukualofaLocation

Past Weather in Nukualofa — Graph

°F

Nukualofa Temperature Yesterday

Maximum temperature yesterday: 84 °F (at 10:00 am)
Minimum temperature yesterday: 75 °F (at 12:00 am)
Average temperature yesterday: 79 °F

High & Low Weather Summary for the Past Weeks

 TemperatureHumidityPressure
High88 °F (Mar 9, 3:00 pm)100% (Mar 4, 11:00 am)30.04 "Hg (Mar 4, 11:00 am)
Low72 °F (Mar 15, 11:00 am)74% (Mar 5, 1:00 pm)29.80 "Hg (Mar 17, 5:00 pm)
Average79 °F88%29.93 "Hg
* Reported Mar 4 10:00 am — Mar 19 10:00 am, Nukualofa. Weather by CustomWeather, © 2019

Note: Actual official high and low records may vary slightly from our data, if they occured in-between our weather recording intervals... More about our weather records

Advertising

Nukualofa Weather History for the Previous 24 Hours

Scroll right to see more
 ConditionsComfort  
Time TempWeatherWind HumidityBarometerVisibility
10:00 am
Tue, Mar 19
81 °FPassing clouds.8 mph84%29.86 "HgN/A
9:00 am81 °FPassing clouds.7 mph79%29.86 "HgN/A
8:00 am75 °FPassing clouds.3 mph94%29.86 "HgN/A
7:00 am73 °FPassing clouds.6 mph94%29.83 "HgN/A
6:00 am73 °FPassing clouds.3 mph100%29.83 "HgN/A
5:00 am75 °FPassing clouds.5 mph94%29.83 "HgN/A
4:00 am75 °FPassing clouds.6 mph94%29.80 "HgN/A
3:00 am75 °FPassing clouds.5 mph94%29.83 "HgN/A
2:00 am75 °FPassing clouds.6 mph94%29.83 "HgN/A
1:00 am77 °FPassing clouds.6 mph89%29.86 "HgN/A
12:00 am77 °FPassing clouds.7 mph89%29.86 "HgN/A
11:00 pm
Mon, Mar 18
77 °FPassing clouds.6 mph89%29.86 "HgN/A
10:00 pm77 °FPassing clouds.7 mph89%29.86 "HgN/A
9:00 pm77 °FPassing clouds.7 mph89%29.83 "HgN/A
8:00 pm77 °FPassing clouds.6 mph89%29.83 "HgN/A
7:00 pm79 °FPassing clouds.7 mph84%29.80 "HgN/A
6:00 pm81 °FPassing clouds.9 mph84%29.80 "HgN/A
5:00 pm82 °FScattered clouds.12 mph84%29.80 "HgN/A
4:00 pm84 °FScattered clouds.7 mph79%29.80 "HgN/A
3:00 pm81 °FPartly sunny.9 mph84%29.80 "HgN/A
2:30 pm81 °FThunderstorms. Broken clouds.9 mph84%29.80 "HgN/A
2:00 pm82 °FPassing clouds.13 mph84%29.80 "HgN/A
1:00 pm84 °FPassing clouds.10 mph79%29.83 "HgN/A
Weather by CustomWeather, © 2019

See weather overview